Location: Peebles
(55.6412°N, 3.1714°W)
Time: 14:26:02
(UTC+01:00)

Okean 2 Rocket - Pass Details

Date: 26 September 2021
Orbit: 617 x 640 km, 82.5° (Epoch: 17 October)

Event Time Altitude Azimuth Distance (km) Brightness Sun altitude
Exits shadow 20:19:50 11° 141° (SE) 1,900 5.1 -11.9°
Maximum altitude 20:23:12 26° 87° (E) 1,240 4.1 -12.4°
Drops below altitude 10° 20:26:51 10° 32° (NNE) 2,001 5.5 -12.9°
Sets 20:29:22 0° 20° (NNE) 2,915 6.5 -13.2°
